JCSAT-2A 1 27399U 02015A 21062.82099562 -.00000225 00000-0 00000-0 0 9990 2 27399 3.5125 83.2730 0006974 351.5951 336.4716 0.99027782 69522 ASTRA 3A 1 27400U 02015B 21062.52386071 -.00000210 00000-0 00000-0 0 9998 2 27400 6.4340 62.0544 0001757 292.5137 268.7386 1.00270263 69356 ARIANE 44L R/B 1 27402U 02015D 21062.40947626 .00002086 00000-0 16448-2 0 9993 2 27402 3.3010 215.5227 7075161 121.8908 325.0580 2.50526735167961